Pioneer Knutsen — LMIK — position and weather

sailwx.info

Track history (hours):
 
Tides and Currents Weather Stations Pressure Air Temp Water Temp Dewpoint Dewpoint Depression Visibility Wind Speed Wind Dir Waves Ship Positions

Pioneer Knutsen

Last reported at 2014-Oct-27 16:33 UTC. Time now 2014-Oct-30 23:46 UTC.
Position N 63°40' E 009°28'.

Length 70 m; draft 3.6 m.

Type: Tanker. MMSI: 259393000.

Date/timePositionNaut miles runAvg speedWind from/ knotsBaromVisibWave heightAir tempDewpointWater temp
2014-Oct-27 16:33N 63°40' E 009°28'77 9.6
2014-Oct-27 08:32N 64°46' E 011°01'1010.4
2014-Oct-27 07:33N 64°53' E 011°18'1211.5
2014-Oct-27 06:33N 65°00' E 011°39'1311.0
2014-Oct-27 05:22N 65°12' E 011°53'1 0.0
2014-Oct-26 08:32N 65°13' E 011°54'1212.5
2014-Oct-26 07:33N 65°02' E 011°42'1212.3
2014-Oct-26 06:33N 64°54' E 011°20'8311.7
2014-Oct-25 23:29N 63°45' E 009°32'  
2014-Oct-22 20:14N 63°35' E 009°26'811.7
2014-Oct-22 19:33N 63°43' E 009°31'3 0.3
2014-Oct-22 11:31N 63°40' E 009°29'  
2014-Oct-18 02:27N 63°35' E 009°26'8111.4
2014-Oct-17 19:22N 64°45' E 010°60'911.7
2014-Oct-17 18:33N 64°52' E 011°16'1211.8
2014-Oct-17 17:33N 64°60' E 011°36'  
Track history (hours):
 
Tides and Currents Weather Stations Pressure Air Temp Water Temp Dewpoint Dewpoint Depression Visibility Wind Speed Wind Dir Waves Ship Positions

Pioneer Knutsen

Last reported at 2014-Oct-27 16:33 UTC. Time now 2014-Oct-30 23:46 UTC.
Position N 63°40' E 009°28'.

Length 70 m; draft 3.6 m.

Type: Tanker. MMSI: 259393000.

Date/timePositionNaut miles runAvg speedWind from/ knotsBaromVisibWave heightAir tempDewpointWater temp
2014-Oct-27 16:33N 63°40' E 009°28'77 9.6
2014-Oct-27 08:32N 64°46' E 011°01'1010.4
2014-Oct-27 07:33N 64°53' E 011°18'1211.5
2014-Oct-27 06:33N 65°00' E 011°39'1311.0
2014-Oct-27 05:22N 65°12' E 011°53'1 0.0
2014-Oct-26 08:32N 65°13' E 011°54'1212.5
2014-Oct-26 07:33N 65°02' E 011°42'1212.3
2014-Oct-26 06:33N 64°54' E 011°20'8311.7
2014-Oct-25 23:29N 63°45' E 009°32'  
2014-Oct-22 20:14N 63°35' E 009°26'811.7
2014-Oct-22 19:33N 63°43' E 009°31'3 0.3
2014-Oct-22 11:31N 63°40' E 009°29'  
2014-Oct-18 02:27N 63°35' E 009°26'8111.4
2014-Oct-17 19:22N 64°45' E 010°60'911.7
2014-Oct-17 18:33N 64°52' E 011°16'1211.8
2014-Oct-17 17:33N 64°60' E 011°36'  

Dump ship's entire track history